Miscellaneous Local Product
Issued by NWS Hastings, NE

Home | Current Version | Previous Version | Text Only | Print | Product List | Glossary On
Versions: 1 2 3 4 5 6 7 8 9 10 11 12 13 14 15 16 17 18 19 20 21 22 23 24 25 26 27 28 29 30 31 32 33 34 35 36 37 38 39 40 41 42 43 44 45 46 47 48 49 50
599
AXUS43 KGID 280302
MISGRI

GID CWA HOURLY WEATHER ROUNDUP
NATIONAL WEATHER SERVICE HASTINGS NE
1000 PM CDT WED JUL 27 2016

NOTE: "FAIR" INDICATES FEW OR NO CLOUDS BELOW 12,000 FEET WITH NO
SIGNIFICANT WEATHER AND/OR OBSTRUCTIONS TO VISIBILITY.

...SOUTH CENTRAL NEBRASKA...

CITY           SKY/WX    TMP DP  RH WIND       PRES   REMARKS
GRAND ISLAND   CLOUDY    75  67  76 N5        30.05R
HASTINGS       CLOUDY    79  65  62 VRB3      30.03F
KEARNEY        CLOUDY    75  18  11 N5        30.06R
ORD            PTCLDY    68  63  84 N7        30.08R
YORK           PTCLDY    72  68  88 N3        30.03R
AURORA         PTCLDY    73  70  89 NE6       30.02R
LEXINGTON      CLEAR     74  69  83 NE6       30.09R
HOLDREGE       CLEAR     72  69  89 CALM      30.06S
HEBRON         PTCLDY    79  67  66 N6        30.02R

...NEBRASKA PANHANDLE...

CITY           SKY/WX    TMP DP  RH WIND       PRES   REMARKS
CHADRON        CLOUDY    73  61  65 E5        30.15R
ALLIANCE       CLOUDY    70  57  63 E7        30.16R
SCOTTSBLUFF    CLEAR     75  58  55 NE13      30.14R
SIDNEY         CLOUDY    67  63  87 SE10      30.16R

...WESTERN AND NORTH CENTRAL NEBRASKA...

CITY           SKY/WX    TMP DP  RH WIND       PRES   REMARKS
VALENTINE      CLOUDY    64  58  80 MISG      30.12S
AINSWORTH      MOCLDY    65  57  76 N8        30.14R
ONEILL         CLOUDY    66  59  78 NW22G35   30.10R
BROKEN BOW     CLEAR     66  63  90 N5        30.12R
IMPERIAL       CLOUDY    77  60  55 NE9       30.12R
NORTH PLATTE   CLEAR     69  62  78 E3        30.11R
MCCOOK         PTCLDY    76  67  73 E7        30.07R

...EASTERN NEBRASKA...

CITY           SKY/WX    TMP DP  RH WIND       PRES   REMARKS
NORFOLK        CLOUDY    69  61  75 N10       30.01F
SO SIOUX CITY  CLOUDY    80  67  64 NE9       29.99R
TEKAMAH        CLOUDY    76  69  79 NW5       29.97S
COLUMBUS       MOCLDY    73  61  64 N8        30.02S
ALBION         PTCLDY    68  62  80 NW3       30.04R
OMAHA EPPLEY   CLOUDY    77  71  82 N5        29.97R
OFFUTT AFB     CLOUDY    77  69  76 N1        29.97R
MILLARD        CLOUDY    81  68  65 CALM      29.98R
LINCOLN        CLEAR     76  69  79 N8        30.00R
NEBRASKA CITY  CLEAR     74  70  86 NE3       29.99R
BEATRICE       CLEAR     75  69  81 NW7       30.00R
FALLS CITY     CLEAR     77  71  82 NW5       29.96R

...NORTHERN KANSAS...

CITY           SKY/WX    TMP DP  RH WIND       PRES   REMARKS
GOODLAND       CLOUDY    74  65  73 SE5       30.10R
HILL CITY      CLEAR     77  68  73 NE8       30.05R
NORTON         PTCLDY    75  63  64 NE8       30.05F
SMITH CENTER   PTCLDY    79  66  65 NE8       30.04R
BELOIT         PTCLDY    79  70  73 CALM      30.00R
HAYS           CLEAR     81  64  57 NE5       30.02R
RUSSELL        CLEAR     81  65  58 E9        30.00R
CONCORDIA      CLEAR     77  70  79 N5        30.00R
SALINA         CLEAR     86  71  60 NE6       29.98R HX  91
TOPEKA           N/A     78  73  84 CALM      29.95R



USA.gov is the U.S. government's official web portal to all federal, state and local government web resources and services.